Location: Seven Kings
(51.5667°N, 0.1000°E)
Time: 04:21:14
(UTC+00:00)

X-37B - Pass Details

Date: 27 June 2021
Orbit: 383 x 392 km, 45.0° (Epoch: 01 July)

Event Time Altitude Azimuth Distance (km) Brightness Sun altitude
Rises 21:24:28 0° 247° (WSW) 2,255 4.6 -7.5°
Reaches altitude 10° 21:26:44 10° 233° (SW) 1,402 3.4 -7.7°
Maximum altitude 21:29:22 24° 177° (S) 833 1.8 -7.9°
Drops below altitude 10° 21:32:00 10° 120° (ESE) 1,402 2.8 -8.2°
Enters shadow 21:32:10 - 118° (ESE) 1,458 2.9 -8.2°
